DLH407 EVRA-EETN

Flight info

Callsign DLH407
Flight time 0h 33m
Altitude 29000
Route SOKVA DCT ANAMA DCT KEMET
Aircraft B38M/M-SDE1FGHILORVWXY/HB1

Departure

Time 2026-05-08 06:41
Airport Riga International Airport (EVRA)

Arrival

Time 2026-05-08 07:14
Airport Lennart Meri Tallinn Airport (EETN)
Time Latitude Longitude Altitude Speed Heading
2026-05-08 06:29 56.92540 23.97874 46 ft 0 kts 185°
2026-05-08 06:34 56.92551 23.97875 46 ft 2 kts 185°
2026-05-08 06:34 56.92569 23.97878 46 ft 3 kts 185°
2026-05-08 06:35 56.92589 23.97882 46 ft 3 kts 185°
2026-05-08 06:35 56.92609 23.97885 46 ft 3 kts 185°
2026-05-08 06:35 56.92629 23.97888 46 ft 3 kts 185°
2026-05-08 06:35 56.92621 23.97887 46 ft 4 kts 185°
2026-05-08 06:36 56.92612 23.97885 46 ft 0 kts 185°
2026-05-08 06:36 56.92611 23.97885 46 ft 0 kts 185°
2026-05-08 06:36 56.92608 23.97885 46 ft 3 kts 186°
2026-05-08 06:37 56.92587 23.97841 46 ft 6 kts 265°
2026-05-08 06:37 56.92599 23.97713 46 ft 15 kts 277°
2026-05-08 06:37 56.92580 23.97559 46 ft 14 kts 207°
2026-05-08 06:37 56.92454 23.97528 46 ft 23 kts 185°
2026-05-08 06:38 56.92258 23.97487 46 ft 33 kts 185°
2026-05-08 06:38 56.92001 23.97446 46 ft 38 kts 184°
2026-05-08 06:38 56.91730 23.97408 46 ft 43 kts 185°
2026-05-08 06:38 56.91509 23.97373 46 ft 28 kts 185°
2026-05-08 06:39 56.91383 23.97350 46 ft 21 kts 197°
2026-05-08 06:39 56.91270 23.97159 46 ft 23 kts 239°
2026-05-08 06:39 56.91279 23.96960 46 ft 9 kts 324°
2026-05-08 06:39 56.91326 23.96939 46 ft 0 kts
2026-05-08 06:40 56.91375 23.96949 46 ft 33 kts
2026-05-08 06:40 56.92007 23.97062 48 ft 147 kts
2026-05-08 06:40 56.93266 23.97266 599 ft 211 kts
2026-05-08 06:41 56.94737 23.97460 2318 ft 214 kts
2026-05-08 06:41 56.96238 23.97680 3973 ft 219 kts
2026-05-08 06:41 56.97805 23.97935 5303 ft 236 kts
2026-05-08 06:41 56.99478 23.98215 6704 ft 246 kts
2026-05-08 06:42 57.01215 23.98511 8081 ft 255 kts
2026-05-08 06:42 57.03017 23.98822 9413 ft 264 kts
2026-05-08 06:42 57.04881 23.99148 10633 ft 277 kts
2026-05-08 06:42 57.06863 23.99585 11615 ft 295 kts 10°
2026-05-08 06:43 57.08867 24.00600 12810 ft 302 kts 14°
2026-05-08 06:43 57.10914 24.01692 13936 ft 311 kts 13°
2026-05-08 06:43 57.13023 24.02821 14958 ft 321 kts 13°
2026-05-08 06:43 57.15202 24.03988 15972 ft 329 kts 13°
2026-05-08 06:44 57.17423 24.05180 16984 ft 336 kts 13°
2026-05-08 06:44 57.19455 24.06271 17856 ft 342 kts 12°
2026-05-08 06:44 57.21768 24.07514 18791 ft 348 kts 12°
2026-05-08 06:44 57.24118 24.08780 19674 ft 355 kts 12°
2026-05-08 06:45 57.26513 24.10070 20521 ft 362 kts 12°
2026-05-08 06:45 57.28949 24.11386 21338 ft 368 kts 12°
2026-05-08 06:45 57.31430 24.12727 22124 ft 374 kts 12°
2026-05-08 06:45 57.33829 24.14604 22836 ft 387 kts 27°
2026-05-08 06:46 57.35919 24.17833 23584 ft 397 kts 45°
2026-05-08 06:46 57.37474 24.22108 24268 ft 405 kts 62°
2026-05-08 06:46 57.38713 24.26812 24971 ft 409 kts 64°
2026-05-08 06:46 57.39979 24.31578 25633 ft 414 kts 60°
2026-05-08 06:47 57.41786 24.35736 26277 ft 415 kts 41°
2026-05-08 06:47 57.44149 24.38749 26895 ft 412 kts 23°
2026-05-08 06:47 57.46856 24.40372 27464 ft 408 kts
2026-05-08 06:47 57.49674 24.40570 28016 ft 405 kts 351°
2026-05-08 06:48 57.52499 24.40158 28563 ft 408 kts 349°
2026-05-08 06:48 57.55339 24.39660 29119 ft 412 kts 349°
2026-05-08 06:48 57.58203 24.39123 29259 ft 412 kts 348°
2026-05-08 06:48 57.61050 24.38568 29258 ft 411 kts 348°
2026-05-08 06:49 57.66736 24.37426 29258 ft 410 kts 347°
2026-05-08 06:49 57.72304 24.35623 29258 ft 408 kts 344°
2026-05-08 06:50 57.77908 24.33825 29259 ft 408 kts 345°
2026-05-08 06:50 57.83502 24.32041 29259 ft 408 kts 345°
2026-05-08 06:51 57.89114 24.30374 29245 ft 412 kts 351°
2026-05-08 06:51 57.92009 24.30787 29266 ft 419 kts
2026-05-08 06:51 57.94888 24.31679 29259 ft 420 kts
2026-05-08 06:52 58.00617 24.33587 29259 ft 421 kts
2026-05-08 06:52 58.06382 24.35563 29257 ft 418 kts
2026-05-08 06:53 58.12022 24.37509 28993 ft 408 kts
2026-05-08 06:53 58.14800 24.38470 28532 ft 405 kts
2026-05-08 06:53 58.17567 24.39428 28031 ft 402 kts
2026-05-08 06:54 58.20309 24.40380 27514 ft 400 kts
2026-05-08 06:54 58.23037 24.41328 26995 ft 397 kts
2026-05-08 06:54 58.25749 24.42271 26478 ft 395 kts
2026-05-08 06:54 58.28445 24.43212 25963 ft 393 kts
2026-05-08 06:55 58.31127 24.44148 25449 ft 390 kts
2026-05-08 06:55 58.33794 24.45081 24936 ft 388 kts
2026-05-08 06:55 58.36442 24.46008 24423 ft 386 kts
2026-05-08 06:55 58.39071 24.46930 23911 ft 383 kts
2026-05-08 06:56 58.41687 24.47850 23380 ft 381 kts
2026-05-08 06:56 58.44299 24.48771 22817 ft 381 kts
2026-05-08 06:56 58.46860 24.49673 22342 ft 377 kts
2026-05-08 06:56 58.49424 24.50578 21855 ft 373 kts
2026-05-08 06:57 58.51975 24.51480 21349 ft 371 kts
2026-05-08 06:57 58.54499 24.52373 20841 ft 368 kts
2026-05-08 06:57 58.57007 24.53263 20332 ft 365 kts
2026-05-08 06:57 58.59499 24.54148 19825 ft 362 kts
2026-05-08 06:58 58.61963 24.55024 19320 ft 359 kts
2026-05-08 06:58 58.64408 24.55895 18817 ft 356 kts
2026-05-08 06:58 58.66839 24.56761 18315 ft 353 kts
2026-05-08 06:58 58.69240 24.57619 17816 ft 349 kts
2026-05-08 06:59 58.71620 24.58411 17284 ft 342 kts
2026-05-08 06:59 58.73167 24.58370 16934 ft 332 kts 351°
2026-05-08 06:59 58.75424 24.57861 16469 ft 321 kts 349°
2026-05-08 06:59 58.77611 24.57323 16020 ft 312 kts 349°
2026-05-08 07:00 58.79732 24.56790 15579 ft 304 kts 349°
2026-05-08 07:00 58.82496 24.56090 14996 ft 300 kts 349°
2026-05-08 07:00 58.83893 24.55734 14701 ft 299 kts 349°
2026-05-08 07:00 58.85947 24.55210 14262 ft 296 kts 349°
2026-05-08 07:01 58.87983 24.54690 13826 ft 294 kts 349°
2026-05-08 07:01 58.89999 24.54174 13392 ft 292 kts 350°
2026-05-08 07:01 58.92006 24.53660 12958 ft 289 kts 350°
2026-05-08 07:01 58.93992 24.53150 12525 ft 287 kts 350°
2026-05-08 07:02 58.95942 24.52649 12043 ft 286 kts 350°
2026-05-08 07:02 58.97914 24.52142 11593 ft 284 kts 351°
2026-05-08 07:02 58.99867 24.51640 11174 ft 281 kts 351°
2026-05-08 07:02 59.01797 24.51143 10756 ft 278 kts 352°
2026-05-08 07:03 59.03700 24.50652 10462 ft 271 kts 352°
2026-05-08 07:03 59.05542 24.50175 10164 ft 264 kts 352°
2026-05-08 07:03 59.07358 24.49706 9779 ft 262 kts 353°
2026-05-08 07:03 59.09152 24.49241 9396 ft 259 kts 353°
2026-05-08 07:04 59.10926 24.48781 9016 ft 256 kts 354°
2026-05-08 07:04 59.12681 24.48325 8640 ft 253 kts 354°
2026-05-08 07:04 59.14419 24.47873 8267 ft 250 kts 354°
2026-05-08 07:04 59.16138 24.47425 7898 ft 248 kts 354°
2026-05-08 07:05 59.17837 24.46982 7534 ft 245 kts 355°
2026-05-08 07:05 59.19528 24.46541 7176 ft 245 kts 355°
2026-05-08 07:05 59.21228 24.46096 6802 ft 247 kts 355°
2026-05-08 07:05 59.22910 24.45661 6393 ft 247 kts 355°
2026-05-08 07:06 59.24612 24.45212 6010 ft 245 kts 355°
2026-05-08 07:06 59.26287 24.44773 5672 ft 241 kts 355°
2026-05-08 07:06 59.27939 24.44339 5354 ft 237 kts 355°
2026-05-08 07:06 59.29549 24.43917 5142 ft 229 kts 355°
2026-05-08 07:07 59.31109 24.43510 4952 ft 222 kts 356°
2026-05-08 07:07 59.32611 24.43115 4741 ft 215 kts 356°
2026-05-08 07:07 59.34096 24.43013 4391 ft 211 kts
2026-05-08 07:07 59.35535 24.43004 4109 ft 202 kts
2026-05-08 07:08 59.36906 24.42983 3870 ft 191 kts
2026-05-08 07:08 59.38201 24.42955 3652 ft 182 kts
2026-05-08 07:08 59.39427 24.43206 3430 ft 176 kts 18°
2026-05-08 07:08 59.40310 24.44732 3227 ft 169 kts 52°
2026-05-08 07:09 59.40830 24.46834 3242 ft 173 kts 65°
2026-05-08 07:09 59.41137 24.49073 3093 ft 168 kts 74°
2026-05-08 07:09 59.41278 24.51356 2967 ft 169 kts 80°
2026-05-08 07:09 59.41348 24.53601 2817 ft 158 kts 82°
2026-05-08 07:10 59.41370 24.55584 2656 ft 136 kts 84°
2026-05-08 07:10 59.41378 24.57368 2451 ft 127 kts 84°
2026-05-08 07:10 59.41381 24.59044 2277 ft 120 kts 84°
2026-05-08 07:10 59.41381 24.60674 2120 ft 120 kts 85°
2026-05-08 07:11 59.41380 24.62311 1964 ft 119 kts 85°
2026-05-08 07:11 59.41377 24.63916 1807 ft 117 kts 85°
2026-05-08 07:11 59.41374 24.65517 1658 ft 118 kts 85°
2026-05-08 07:11 59.41371 24.67126 1535 ft 118 kts 85°
2026-05-08 07:12 59.41370 24.68763 1351 ft 120 kts 90°
2026-05-08 07:12 59.41363 24.70421 1213 ft 123 kts 90°
2026-05-08 07:12 59.41357 24.72119 1081 ft 125 kts 90°
2026-05-08 07:12 59.41352 24.73803 896 ft 123 kts 90°
2026-05-08 07:13 59.41347 24.75486 714 ft 123 kts 90°
2026-05-08 07:13 59.41341 24.77168 578 ft 124 kts 90°
2026-05-08 07:13 59.41338 24.78861 399 ft 124 kts 90°
2026-05-08 07:13 59.41334 24.80537 219 ft 122 kts 90°
2026-05-08 07:14 59.41334 24.82157 145 ft 110 kts 90°
2026-05-08 07:14 59.41334 24.83200 144 ft 63 kts 91°
2026-05-08 07:14 59.41325 24.84047 144 ft 62 kts 91°
2026-05-08 07:14 59.41323 24.84769 144 ft 40 kts 90°
2026-05-08 07:15 59.41377 24.85020 144 ft 13 kts 360°
2026-05-08 07:15 59.41485 24.84977 144 ft 16 kts 314°
2026-05-08 07:15 59.41511 24.84780 144 ft 17 kts 261°
2026-05-08 07:15 59.41499 24.84462 144 ft 30 kts 270°
2026-05-08 07:16 59.41500 24.83958 144 ft 40 kts 270°
2026-05-08 07:16 59.41501 24.83415 144 ft 36 kts 270°
2026-05-08 07:16 59.41502 24.82889 144 ft 37 kts 270°
2026-05-08 07:16 59.41503 24.82369 144 ft 43 kts 270°
2026-05-08 07:17 59.41504 24.81888 144 ft 32 kts 270°
2026-05-08 07:17 59.41506 24.81398 144 ft 37 kts 270°
2026-05-08 07:17 59.41507 24.80912 144 ft 31 kts 270°
2026-05-08 07:17 59.41511 24.80594 144 ft 18 kts 288°
2026-05-08 07:18 59.41615 24.80517 144 ft 23 kts
2026-05-08 07:18 59.41724 24.80464 144 ft 13 kts 316°
2026-05-08 07:18 59.41748 24.80289 144 ft 16 kts 275°
2026-05-08 07:18 59.41750 24.80088 144 ft 7 kts 263°
2026-05-08 07:19 59.41724 24.80057 144 ft 7 kts 181°
2026-05-08 07:19 59.41696 24.80056 144 ft 2 kts 181°
2026-05-08 07:19 59.41694 24.80056 144 ft 0 kts 181°